1500098401.21,54742,17.06,73622.3,3.67,1.63,0.95,0,*47
1500098402.46,54743,17.06,73622.0,3.67,1.51,0.83,0,*40
1500098403.69,54744,17.06,73622.3,3.67,1.13,0.43,0,*4D
1500098404.95,54745,17.06,73622.0,3.67,1.13,0.33,0,*4B
1500098406.21,54746,17.06,73622.3,3.67,1.13,0.51,0,*4C
1500098407.46,54747,17.06,73620.8,3.67,1.43,0.83,0,*47
1500098408.71,54748,17.06,73622.5,3.67,1.43,0.79,0,*4D
1500098409.96,54749,17.06,73620.0,3.67,1.43,0.83,0,*49
1500098411.21,54750,17.06,73622.5,3.67,1.55,0.95,0,*41
1500098412.4,54751,17.06,73620.0,3.65,1.75,1.05,0,*78
1500098413.64,54752,17.06,73620.3,3.67,1.51,0.95,0,*47
1500098414.87,54753,17.06,73620.3,3.65,1.67,1.13,0,*7E
1500098416.11,54754,17.06,73622.5,3.67,1.51,0.95,0,*41
1500098417.37,54755,17.06,73622.0,3.67,1.51,0.83,0,*47
1500098418.59,54756,17.06,73622.8,3.67,1.05,0.33,0,*4E
1500098419.82,54757,17.06,73622.3,3.67,1.41,0.71,0,*49
1500098421.04,54758,17.06,73622.8,3.67,1.67,1.05,0,*70
1500098422.28,54759,17.06,73620.5,3.67,1.79,1.17,0,*7D
1500098423.5,54760,17.06,73622.8,3.71,1.71,1.05,0,*7B
1500098424.73,54761,17.06,73622.0,3.71,1.83,1.29,0,*79
1500098425.95,54762,17.06,73622.8,3.71,1.55,0.97,0,*45
1500098427.21,54763,17.06,73622.5,3.71,1.71,1.21,0,*7E
1500098428.44,54764,17.06,73620.0,3.73,1.63,1.09,0,*72
1500098429.65,54765,17.06,73620.3,3.71,1.89,1.41,0,*79
1500098430.91,54766,17.06,73620.5,3.71,1.93,1.33,0,*74
1500098432.13,54767,17.06,73616.8,3.73,1.97,1.43,0,*74
1500098433.37,54768,17.06,73620.8,3.71,-7.95,-8.93,0,*79
1500098434.62,54769,17.06,73620.3,3.49,-6.59,-7.01,0,*76
1500098435.83,54770,17.06,73618.8,3.43,-1.13,-1.75,0,*78
1500098437.04,54771,17.06,73620.8,3.43,-0.41,-1.01,0,*4C
1500098438.24,54772,17.06,73618.8,3.43,0.29,-0.29,0,*57
1500098439.46,54773,17.06,73624.0,3.41,0.55,0.01,0,*48
1500098440.71,54774,17.06,73622.5,3.41,1.09,0.41,0,*43
1500098441.94,54775,17.06,73620.5,3.45,1.05,0.47,0,*4C
1500098443.14,54776,17.06,73618.3,3.43,1.41,0.79,0,*44
1500098444.37,54777,17.06,73622.3,3.45,1.05,0.33,0,*4D
1500098445.56,54778,17.06,73622.3,3.43,0.79,0.05,0,*4B
1500098446.77,54779,17.06,73622.5,3.43,-0.57,-1.39,0,*48
1500098447.98,54780,17.06,73622.0,3.39,-0.33,-1.05,0,*4E
1500098449.2,54781,17.06,73618.5,3.39,0.79,0.29,0,*7E
1500098450.46,54782,17.06,73622.3,3.41,1.17,0.67,0,*41
1500098451.71,54783,17.06,73620.5,3.41,1.25,0.63,0,*45
1500098452.94,54784,17.06,73622.5,3.45,1.01,0.33,0,*45
1500098454.2,54785,17.06,73622.5,3.45,1.21,0.59,0,*4A
1500098455.43,54786,17.06,73618.0,3.43,1.29,0.67,0,*4A
1500098456.65,54787,17.06,73620.3,3.43,1.43,0.95,0,*4A
1500098457.9,54788,17.06,73622.8,3.45,1.55,0.91,0,*40
1500098459.17,54789,17.06,73620.3,3.49,1.33,0.71,0,*43
1500098460.43,54790,17.06,73620.8,3.49,1.21,0.59,0,*42
1500098461.7,54791,17.06,73622.3,3.49,1.21,0.51,0,*4B
1500098462.92,54792,17.06,73618.5,3.49,0.83,0.01,0,*44
1500098464.15,54793,17.06,73620.8,3.49,0.59,-0.11,0,*5E
1500098465.35,54794,17.06,73620.0,3.43,0.21,-0.45,0,*5D
1500098466.54,54795,17.06,73620.0,3.43,0.37,-0.37,0,*5E
1500098467.77,54796,17.06,73622.8,3.45,0.33,-0.41,0,*5E
1500098468.93,54797,17.06,73620.5,3.43,0.43,-0.29,0,*50
1500098470.16,54798,17.06,73622.5,3.41,0.29,-0.33,0,*5A
1500098471.35,54799,17.06,73622.0,3.39,0.63,0.01,0,*46
1500098472.58,54800,17.06,73622.3,3.39,1.13,0.51,0,*4A
1500098473.85,54801,17.06,73622.8,3.41,1.13,0.51,0,*44
1500098475.11,54802,17.06,73618.0,3.41,1.17,0.75,0,*45
1500098476.34,54803,17.06,73618.0,3.41,1.41,0.87,0,*4A
1500098477.6,54804,17.06,73622.5,3.41,1.17,0.55,0,*41
1500098478.78,54805,17.06,73622.8,3.43,1.01,0.43,0,*42
1500098480.01,54806,17.06,73620.0,3.43,1.29,0.67,0,*4D
1500098481.23,54807,17.06,73620.0,3.43,0.91,0.21,0,*7C
1500098482.46,54808,17.06,73620.3,3.45,1.01,0.33,0,*4E
1500098483.69,54809,17.06,73622.5,3.43,1.17,0.55,0,*4E
1500098484.93,54810,17.06,73622.5,3.43,1.21,0.59,0,*4F
1500098486.13,54811,17.06,73620.8,3.43,1.41,0.83,0,*4F
1500098487.35,54812,17.06,73620.3,3.45,1.41,0.83,0,*4A
1500098488.55,54813,17.06,73622.8,3.43,1.41,0.79,0,*48
1500098489.81,54814,17.06,73618.5,3.45,1.29,0.71,0,*4F
1500098491.03,54815,17.06,73618.0,3.45,1.41,0.79,0,*48
1500098492.28,54816,17.06,73622.8,3.45,0.91,0.29,0,*72
1500098493.51,54817,17.06,73622.5,3.45,0.55,-0.07,0,*6A
1500098494.76,54818,17.06,73622.0,3.45,0.79,0.21,0,*72
1500098495.96,54819,17.06,73620.3,3.43,1.05,0.55,0,*4C
1500098497.22,54820,17.06,73624.0,3.45,1.29,0.79,0,*40
1500098498.48,54821,17.06,73620.3,3.45,1.33,0.79,0,*4A
1500098499.73,54822,17.06,73622.5,3.45,1.29,0.67,0,*4D
1500098500.98,54823,17.06,73622.5,3.45,0.79,0.17,0,*7F
1500098502.19,54824,17.06,73620.8,3.45,0.59,0.09,0,*45
1500098503.36,54825,17.06,73620.5,3.43,0.43,-0.15,0,*59
1500098504.56,54826,17.06,73622.5,3.43,0.17,-0.57,0,*5D
1500098505.75,54827,17.06,73616.5,3.41,0.05,-0.61,0,*68
1500098506.98,54828,17.06,73620.5,3.41,0.25,-0.45,0,*53
1500098508.17,54829,17.06,73622.0,3.39,0.13,-0.57,0,*5B
1500098509.34,54830,17.06,73622.0,3.39,-0.07,-0.61,0,*4E
1500098510.53,54831,17.06,73620.8,3.35,-0.15,-0.77,0,*77
1500098511.76,54832,17.06,73620.0,3.37,0.47,-0.15,0,*58
1500098512.98,54833,17.06,73620.3,3.35,0.95,0.37,0,*79
1500098514.2,54834,17.06,73624.3,3.35,0.51,-0.23,0,*5E
1500098515.45,54835,17.06,73622.5,3.37,0.51,-0.23,0,*5D
1500098516.68,54836,17.06,73620.8,3.37,0.47,-0.15,0,*5C
1500098517.93,54837,17.06,73620.3,3.33,0.79,0.17,0,*7B
1500098519.18,54838,17.06,73622.0,3.33,0.83,0.21,0,*74
1500098520.43,54839,17.06,73624.0,3.33,0.71,0.17,0,*7D
1500098521.67,54840,17.06,73622.8,3.33,0.83,0.17,0,*7E
1500098522.92,54841,17.06,73620.3,3.33,0.95,0.37,0,*7A
1500098524.14,54842,17.06,73626.0,3.33,0.59,-0.03,0,*63
1500098525.37,54843,17.06,73624.3,3.31,0.51,-0.11,0,*5B
1500098526.59,54844,17.06,73622.0,3.33,0.59,0.05,0,*4E
1500098527.85,54845,17.06,73622.0,3.33,1.09,0.47,0,*4D
1500098529.07,54846,17.06,73624.5,3.31,0.97,0.33,0,*79
1500098530.31,54847,17.06,73622.5,3.35,1.13,0.59,0,*4D
1500098531.5,54848,17.06,73624.5,3.35,0.63,0.09,0,*41
1500098532.69,54849,17.06,73618.5,3.35,0.59,0.01,0,*41
1500098533.92,54850,17.06,73622.0,3.35,1.09,0.47,0,*4F
1500098535.14,54851,17.06,73620.3,3.35,0.95,0.25,0,*7E
1500098536.37,54852,17.06,73620.3,3.35,0.51,-0.23,0,*5E
1500098537.59,54853,17.06,73622.0,3.35,0.37,-0.27,0,*5B
1500098538.79,54854,17.06,73620.0,3.35,0.21,-0.45,0,*5F
1500098540.01,54855,17.06,73620.0,3.31,0.21,-0.41,0,*5E
1500098541.23,54856,17.06,73620.0,3.31,0.17,-0.53,0,*5B
1500098542.42,54857,17.06,73620.5,3.31,0.97,0.43,0,*7E
1500098543.69,54858,17.06,73618.8,3.33,1.33,0.71,0,*4D
1500098544.95,54859,17.06,73622.5,3.33,1.17,0.59,0,*40
1500098546.19,54860,17.06,73620.3,3.35,1.13,0.59,0,*48
1500098547.42,54861,17.06,73620.5,3.35,1.13,0.63,0,*40
1500098548.66,54862,17.06,73622.8,3.35,1.37,0.83,0,*4B
1500098549.9,54863,17.06,73622.0,3.35,1.33,0.75,0,*47
1500098551.13,54864,17.06,73622.5,3.37,1.05,0.47,0,*46
1500098552.34,54865,17.06,73622.0,3.37,-0.33,-0.73,0,*74
1500098553.55,54866,17.06,73622.5,3.35,-1.13,-1.59,0,*7F
1500098554.74,54867,17.06,73622.8,3.31,0.05,-0.53,0,*6A
1500098555.99,54868,17.06,73620.5,3.31,0.91,0.33,0,*73
1500098557.22,54869,17.06,73620.0,3.31,1.13,0.43,0,*4E
1500098558.48,54870,17.06,73620.8,3.33,1.09,0.47,0,*4B
1500098559.74,54871,17.06,73624.8,3.33,1.29,0.67,0,*4A
1500098560.99,54872,17.13,73626.0,3.33,1.43,0.83,0,*4F
1500098562.22,54873,17.06,73624.0,3.33,0.67,-0.15,0,*5B
1500098563.45,54874,17.06,73622.8,3.33,0.47,-0.19,0,*52
1500098564.68,54875,17.06,73624.3,3.33,0.47,-0.15,0,*5F
1500098565.92,54876,17.06,73622.8,3.35,1.13,0.51,0,*47
1500098567.16,54877,17.06,73620.3,3.35,1.33,0.75,0,*42
1500098568.42,54878,17.06,73620.5,3.37,1.37,0.87,0,*46
1500098569.65,54879,17.06,73620.0,3.37,1.55,0.97,0,*42
1500098570.87,54880,17.06,73622.5,3.37,1.59,1.05,0,*72
1500098572.09,54881,17.06,73620.0,3.37,1.47,0.97,0,*46
1500098573.35,54882,17.06,73622.5,3.37,1.33,0.71,0,*4E
1500098574.59,54883,17.06,73620.8,3.39,1.37,0.75,0,*41
1500098575.81,54884,17.06,73620.3,3.41,1.59,1.01,0,*73
1500098577.04,54885,17.06,73624.3,3.41,1.51,1.01,0,*7A
1500098578.31,54886,17.06,73620.5,3.41,1.37,0.87,0,*46
1500098579.52,54887,17.06,73622.0,3.43,1.43,0.95,0,*45
1500098580.76,54888,17.06,73622.3,3.45,1.55,1.01,0,*77
1500098582.01,54889,17.06,73620.8,3.45,1.51,0.91,0,*4A
1500098583.27,54890,17.06,73620.0,3.45,1.29,0.59,0,*49
1500098584.5,54891,17.06,73622.5,3.43,1.17,0.55,0,*4F
1500098585.77,54892,17.06,73626.5,3.45,1.13,0.47,0,*4D
1500098587.0,54893,17.06,73624.3,3.43,1.13,0.55,0,*49
1500098588.23,54894,17.06,73622.3,3.49,1.05,0.37,0,*47
1500098589.48,54895,17.06,73620.3,3.49,0.87,0.25,0,*7E
1500098590.72,54896,17.06,73620.0,3.45,0.95,0.29,0,*7E
1500098591.97,54897,17.06,73620.3,3.45,-1.39,-2.19,0,*79
1500098593.17,54898,17.06,73622.5,3.43,0.55,-0.03,0,*6F
1500098594.4,54899,17.06,73622.0,3.43,1.21,0.71,0,*44
1500098595.66,54900,17.06,73624.3,3.45,1.33,0.79,0,*48
1500098596.92,54901,17.06,73624.3,3.45,1.33,0.91,0,*4F
1500098598.15,54902,17.06,73620.5,3.43,1.43,0.83,0,*4E
1500098599.4,54903,17.13,73626.3,3.45,1.43,0.91,0,*4A
1500098600.66,54904,17.06,73622.5,3.45,-29.57,-31.85,0,*75
1500098601.88,54905,17.06,73620.8,3.17,-53.99,-59.55,0,*7F
1500098603.11,54906,17.06,73622.0,2.79,-28.63,-25.49,0,*7A
1500098604.38,54907,17.06,73620.0,2.67,-7.65,-7.61,0,*75
1500098605.62,54908,17.06,73622.0,2.63,-1.87,-1.79,0,*7B
1500098606.83,54909,17.06,73620.8,2.63,-0.49,-0.41,0,*73
1500098608.03,54910,17.06,73624.8,2.59,-3.23,-2.91,0,*72
1500098609.25,54911,17.06,73622.3,2.59,-1.33,-1.29,0,*70
1500098610.42,54912,17.06,73620.5,2.61,-0.33,-0.29,0,*78
1500098611.64,54913,17.06,73620.8,2.61,0.37,0.47,0,*75
1500098612.81,54914,17.06,73620.5,2.61,1.01,1.01,0,*75
1500098614.01,54915,17.06,73620.3,2.63,1.05,1.05,0,*76
1500098615.24,54916,17.06,73622.5,2.65,1.21,1.13,0,*72
1500098616.48,54917,17.06,73626.5,2.65,1.13,1.13,0,*72
1500098617.74,54918,17.06,73622.8,2.69,1.09,1.13,0,*7A
1500098619.0,54919,17.06,73626.5,2.69,1.25,1.25,0,*70
1500098620.25,54920,17.06,73620.5,2.69,1.47,1.51,0,*7D
1500098621.5,54921,17.06,73624.0,2.69,1.51,1.51,0,*7B
1500098622.73,54922,17.06,73624.8,2.71,1.43,1.51,0,*72
1500098623.95,54923,17.06,73622.0,2.75,1.67,1.67,0,*74
1500098625.14,54924,17.06,73624.3,2.75,1.75,1.75,0,*73
1500098626.34,54925,17.06,73622.8,2.79,1.83,1.71,0,*73
1500098627.58,54926,17.06,73620.0,2.79,1.85,1.85,0,*7D
1500098628.79,54927,17.06,73622.5,2.81,1.75,1.83,0,*72
1500098630.0,54928,17.06,73622.0,2.83,1.79,1.85,0,*75
1500098631.23,54929,17.06,73620.3,2.83,2.09,2.13,0,*7C
1500098632.4,54930,17.06,73622.0,2.87,2.31,2.31,0,*7B
1500098633.58,54931,17.06,73624.3,2.87,2.27,2.31,0,*7D
1500098634.8,54932,17.06,73622.5,2.91,2.25,2.21,0,*7A
1500098636.03,54933,17.06,73622.5,2.91,2.05,1.93,0,*73
1500098637.26,54934,17.06,73626.3,2.91,1.55,1.51,0,*7C
1500098638.48,54935,17.06,73624.8,2.91,1.47,1.47,0,*79
1500098639.7,54936,17.06,73624.3,2.91,1.47,1.47,0,*7A
1500098640.92,54937,17.06,73622.8,2.93,1.51,1.41,0,*78
1500098642.14,54938,17.06,73620.0,2.93,1.05,0.91,0,*4A
1500098643.36,54939,17.13,73624.0,2.95,0.83,0.71,0,*7C
1500098644.62,54940,17.06,73622.0,2.93,1.37,1.37,0,*79
1500098645.84,54941,17.06,73624.0,2.93,1.75,1.63,0,*7F
1500098647.06,54942,17.06,73626.0,2.95,1.67,1.67,0,*7D
1500098648.27,54943,17.06,73624.0,2.95,1.85,1.75,0,*73
1500098649.52,54944,17.06,73624.3,2.97,2.01,2.01,0,*79
1500098650.79,54945,17.06,73624.3,2.97,2.17,2.17,0,*78
1500098652.02,54946,17.06,73626.5,3.01,2.17,2.17,0,*75
1500098653.25,54947,17.13,73624.8,3.01,2.25,2.25,0,*74
1500098654.47,54948,17.06,73624.0,3.01,1.93,1.89,0,*70
1500098655.67,54949,17.06,73620.8,3.05,2.25,2.31,0,*7B
1500098656.85,54950,17.06,73622.8,3.05,2.35,2.35,0,*76
1500098658.09,54951,17.06,73622.0,3.07,1.89,1.89,0,*75
1500098659.32,54952,17.06,73622.8,3.05,2.09,2.09,0,*74
1500098660.52,54953,17.06,73626.5,3.09,1.89,1.79,0,*76
1500098661.69,54954,17.06,73620.5,3.09,1.79,1.79,0,*7E
1500098662.91,54955,17.13,73626.0,3.09,1.93,1.89,0,*74
1500098664.13,54956,17.06,73622.8,3.09,1.93,1.93,0,*7C
1500098665.35,54957,17.06,73620.3,3.09,2.25,2.25,0,*7D
1500098666.58,54958,17.06,73624.8,3.11,2.39,2.35,0,*77
1500098667.77,54959,17.06,73620.8,3.11,2.35,2.27,0,*79
1500098668.97,54960,17.06,73622.0,3.11,2.35,2.35,0,*70
1500098670.2,54961,17.06,73624.8,3.11,2.39,2.35,0,*7D
1500098671.4,54962,17.06,73622.5,3.13,2.27,2.17,0,*73
1500098672.6,54963,17.06,73624.8,3.15,2.27,2.27,0,*77
1500098673.79,54964,17.06,73620.8,3.15,2.27,2.27,0,*70
1500098675.05,54965,17.06,73624.3,3.15,1.97,2.05,0,*79
1500098676.3,54966,17.06,73626.5,3.15,2.17,2.17,0,*72
1500098677.5,54967,17.06,73622.0,3.19,2.35,2.27,0,*7C
1500098678.73,54968,17.06,73622.5,3.17,2.43,2.43,0,*7E
1500098679.95,54969,17.06,73624.3,3.19,2.61,2.55,0,*76
1500098681.21,54970,17.06,73620.3,3.19,2.55,2.51,0,*7D
1500098682.46,54971,17.06,73622.0,3.19,2.51,2.47,0,*7F
1500098683.66,54972,17.06,73620.8,3.21,2.27,2.25,0,*72
1500098684.86,54973,17.06,73624.5,3.21,2.35,2.25,0,*70
1500098686.04,54974,17.06,73620.0,3.21,2.27,2.27,0,*76
1500098687.25,54975,17.06,73624.8,3.25,2.21,1.97,0,*7D
1500098688.45,54976,17.06,73624.0,3.25,2.39,2.31,0,*78
1500098689.68,54977,17.06,73622.8,3.27,2.27,2.17,0,*70
1500098690.88,54978,17.06,73622.5,3.21,2.39,2.27,0,*75
1500098692.08,54979,17.06,73624.0,3.25,2.51,2.31,0,*79
1500098693.27,54980,17.13,73624.8,3.25,2.31,2.21,0,*78
1500098694.5,54981,17.06,73622.5,3.29,2.13,2.09,0,*7F
1500098695.75,54982,17.06,73624.3,3.27,1.97,1.93,0,*7D
1500098696.97,54983,17.06,73624.0,3.29,1.89,1.89,0,*76
1500098698.2,54984,17.06,73626.8,3.27,1.85,1.83,0,*79
1500098699.4,54985,17.06,73624.5,3.27,1.75,1.75,0,*7E
1500098700.65,54986,17.06,73624.3,3.27,1.71,1.67,0,*7A
1500098701.9,54987,17.06,73622.8,3.27,1.55,1.37,0,*78
1500098703.13,54988,17.06,73622.5,3.21,1.47,1.37,0,*72
1500098704.35,54989,17.06,73620.0,3.25,1.25,1.13,0,*75
1500098705.57,54990,17.13,73626.8,3.25,1.67,1.55,0,*79
1500098706.77,54991,17.06,73622.3,3.25,1.75,1.67,0,*7A
1500098708.02,54992,17.06,73620.8,3.27,1.47,1.33,0,*7B
1500098709.2,54993,17.06,73620.0,3.21,1.05,1.05,0,*7F
1500098710.4,54994,17.06,73624.0,3.21,1.05,0.91,0,*44
1500098711.58,54995,17.13,73626.5,3.21,1.05,1.05,0,*79
1500098712.8,54996,17.13,73626.0,3.19,1.17,0.97,0,*48
1500098714.05,54997,17.06,73622.8,3.19,1.67,1.63,0,*74
1500098715.25,54998,17.06,73624.8,3.19,1.83,1.79,0,*7A
1500098716.5,54999,17.06,73622.0,3.19,2.01,2.05,0,*7A
1500098717.72,55000,17.13,73624.8,3.19,1.79,1.67,0,*79
1500098718.96,55001,17.06,73620.5,3.19,2.01,1.89,0,*74
1500098720.22,55002,17.06,73622.8,3.19,2.17,2.13,0,*70
1500098721.47,55003,17.06,73622.3,3.19,2.13,2.01,0,*76
1500098722.7,55004,17.06,73622.3,3.19,2.27,2.13,0,*75
1500098723.93,55005,17.06,73622.3,3.21,2.25,2.13,0,*7D
1500098725.16,55006,17.06,73624.3,3.21,2.13,2.05,0,*7C
1500098726.38,55007,17.13,73624.0,3.25,2.39,2.21,0,*77
1500098727.6,55008,17.13,73624.3,3.21,2.13,1.89,0,*75
1500098728.83,55009,17.06,73624.5,3.25,2.05,1.85,0,*7B
1500098730.05,55010,17.13,73624.8,3.25,2.17,1.97,0,*73
1500098731.27,55011,17.13,73628.0,3.25,2.21,1.93,0,*73
1500098732.47,55012,17.06,73626.5,3.25,1.97,1.83,0,*7F
1500098733.67,55013,17.06,73624.0,3.25,1.97,1.83,0,*7E
1500098734.87,55014,17.06,73624.3,3.25,1.93,1.75,0,*74
1500098736.1,55015,17.06,73624.3,3.21,1.51,1.21,0,*7E
1500098737.3,55016,17.06,73626.8,3.25,1.25,1.01,0,*78
1500098738.52,55017,17.06,73626.3,3.21,1.43,1.17,0,*7A
1500098739.75,55018,17.06,73624.3,3.25,1.55,1.29,0,*7B
1500098740.95,55019,17.06,73624.5,3.21,1.79,1.55,0,*7B
1500098742.17,55020,17.06,73622.3,3.25,1.85,1.67,0,*77
1500098743.39,55021,17.13,73624.3,3.21,1.89,1.63,0,*7A
1500098744.62,55022,17.06,73622.0,3.21,2.05,1.67,0,*7A
1500098745.82,55023,17.13,73628.0,3.21,2.01,1.79,0,*70
1500098747.03,55024,17.13,73624.3,3.21,2.05,1.79,0,*73
1500098748.25,55025,17.06,73622.5,3.25,2.21,1.85,0,*73
1500098749.45,55026,17.06,73622.8,3.21,2.21,1.83,0,*72
1500098750.64,55027,17.13,73624.3,3.25,2.09,1.75,0,*74
1500098751.85,55028,17.06,73624.8,3.21,2.17,1.83,0,*79
1500098753.08,55029,17.06,73626.0,3.25,2.39,2.05,0,*7D
1500098754.31,55030,17.13,73624.0,3.27,2.17,1.83,0,*76
1500098755.56,55031,17.13,73626.0,3.27,2.05,1.67,0,*7E
1500098756.8,55032,17.06,73624.3,3.27,1.97,1.71,0,*72
1500098758.0,55033,17.13,73624.8,3.25,2.21,1.83,0,*72
1500098759.2,55034,17.13,73626.5,3.25,2.27,1.85,0,*75
1500098760.42,55035,17.13,73626.8,3.25,2.09,1.55,0,*75
1500098761.67,55036,17.13,73626.0,3.27,1.85,1.43,0,*74
1500098762.92,55037,17.13,73626.0,3.27,1.71,1.21,0,*7A
1500098764.17,55038,17.13,73626.5,3.27,1.71,1.21,0,*75
1500098765.37,55039,17.13,73626.8,3.21,1.51,0.97,0,*4C
1500098766.57,55040,17.06,73624.8,3.21,1.41,0.91,0,*45
1500098767.8,55041,17.13,73626.0,3.21,1.29,0.79,0,*4C
1500098769.01,55042,17.06,73624.3,3.21,0.95,0.25,0,*70
1500098770.23,55043,17.13,73626.3,3.19,0.71,0.09,0,*4E
1500098771.44,55044,17.06,73624.3,3.17,0.63,0.17,0,*7B
1500098772.65,55045,17.13,73626.5,3.17,0.75,0.29,0,*70
1500098773.88,55046,17.06,73624.8,3.19,0.71,0.25,0,*75
1500098775.12,55047,17.06,73624.5,3.15,0.59,0.13,0,*77
1500098776.35,55048,17.13,73626.5,3.15,0.75,0.37,0,*70
1500098777.56,55049,17.13,73626.5,3.13,0.75,0.29,0,*78
1500098778.81,55050,17.13,73626.5,3.15,0.91,0.51,0,*73
1500098780.04,55051,17.06,73624.8,3.13,0.91,0.51,0,*74
1500098781.25,55052,17.13,73626.3,3.11,1.05,0.67,0,*4C
1500098782.5,55053,17.13,73624.0,3.11,1.09,0.79,0,*4E
1500098783.76,55054,17.13,73624.3,3.11,1.33,0.87,0,*41
1500098784.99,55055,17.06,73622.3,3.13,1.47,1.09,0,*76
1500098786.22,55056,17.13,73624.5,3.13,1.37,0.91,0,*42
1500098787.42,55057,17.13,73624.3,3.13,1.01,0.63,0,*4B
1500098788.62,55058,17.13,73626.8,3.11,1.41,1.05,0,*73
1500098789.87,55059,17.13,73626.3,3.11,1.59,1.21,0,*7D
1500098791.1,55060,17.13,73626.0,3.11,1.79,1.33,0,*76
1500098792.32,55061,17.13,73624.5,3.11,1.79,1.43,0,*70
1500098793.54,55062,17.13,73628.0,3.13,2.09,1.71,0,*74
1500098794.76,55063,17.13,73624.5,3.13,1.85,1.47,0,*77
1500098795.99,55064,17.13,73624.5,3.15,2.17,1.75,0,*7F
1500098797.19,55065,17.13,73624.8,3.15,2.27,1.83,0,*74
1500098798.39,55066,17.13,73626.5,3.15,2.27,1.75,0,*7E
1500098799.64,55067,17.13,73624.0,3.15,1.85,1.43,0,*71
1500098800.86,55068,17.13,73624.3,3.15,1.83,1.33,0,*7F
1500098802.11,55069,17.13,73624.8,3.15,1.85,1.33,0,*78
1500098803.31,55070,17.13,73626.8,3.17,1.75,1.13,0,*7F
1500098804.54,55071,17.06,73624.0,3.17,1.85,1.17,0,*75
1500098805.75,55072,17.06,73624.5,3.17,1.79,1.17,0,*75
1500098806.98,55073,17.13,73626.3,3.17,2.01,1.37,0,*7A
1500098808.2,55074,17.13,73626.3,3.17,1.89,1.29,0,*71
1500098809.39,55075,17.13,73626.5,3.19,1.83,1.05,0,*7A
1500098810.62,55076,17.13,73622.5,3.19,1.83,1.17,0,*7A
1500098811.84,55077,17.13,73626.5,3.19,1.71,0.97,0,*4F
1500098813.08,55078,17.13,73624.8,3.19,1.67,0.83,0,*42
1500098814.3,55079,17.13,73626.0,3.17,1.51,0.55,0,*43
1500098815.5,55080,17.13,73624.0,3.17,1.01,0.41,0,*45
1500098816.69,55081,17.13,73624.0,3.17,1.75,0.95,0,*4E
1500098817.94,55082,17.06,73624.0,3.19,2.01,1.29,0,*75
1500098819.12,55083,17.13,73626.0,3.17,1.83,1.05,0,*7D
1500098820.37,55084,17.06,73622.3,3.19,2.05,1.33,0,*7C
1500098821.62,55085,17.13,73626.0,3.19,1.93,1.17,0,*77
1500098822.81,55086,17.13,73624.8,3.19,1.83,1.05,0,*76
1500098823.98,55087,17.13,73624.5,3.21,1.83,0.97,0,*46
1500098825.17,55088,17.13,73624.0,3.21,1.83,0.95,0,*4B
1500098826.36,55089,17.06,73620.5,3.25,-2.35,-3.91,0,*77
1500098827.55,55090,17.13,73628.0,3.21,0.05,-0.93,0,*66
1500098828.78,55091,17.13,73626.5,3.21,1.33,0.47,0,*47
1500098830.0,55092,17.13,73626.3,3.25,1.67,0.63,0,*47
1500098831.2,55093,17.13,73626.5,3.21,1.43,0.43,0,*46
1500098832.43,55094,17.13,73626.3,3.25,1.37,0.51,0,*45
1500098833.65,55095,17.13,73624.0,3.25,1.71,0.75,0,*40
1500098834.82,55096,17.13,73626.5,3.25,1.83,1.01,0,*7C
1500098835.98,55097,17.13,73626.5,3.25,1.83,0.97,0,*43
1500098837.17,55098,17.13,73624.8,3.25,1.83,0.95,0,*4E
1500098838.42,55099,17.13,73626.8,3.27,1.67,0.63,0,*4E
1500098839.66,55100,17.06,73620.8,3.27,1.55,0.63,0,*4E
1500098840.89,55101,17.13,73624.5,3.29,1.71,0.87,0,*4D
1500098842.11,55102,17.13,73624.5,3.27,1.75,0.87,0,*44
1500098843.32,55103,17.13,73624.8,3.29,1.75,0.79,0,*4A
1500098844.49,55104,17.13,73626.8,3.29,1.79,0.97,0,*41
1500098845.72,55105,17.13,73626.3,3.31,1.85,1.01,0,*74
1500098846.94,55106,17.13,73624.0,3.31,1.85,1.05,0,*73
1500098848.2,55107,17.06,73622.8,3.33,1.93,1.09,0,*7B
1500098849.46,55108,17.13,73626.5,3.33,2.01,1.17,0,*73
1500098850.72,55109,17.13,73626.3,3.33,1.93,1.17,0,*7A
1500098851.89,55110,17.13,73628.5,3.35,1.79,0.97,0,*49
1500098853.13,55111,17.13,73626.5,3.35,1.85,1.09,0,*7D
1500098854.36,55112,17.13,73624.3,3.35,1.93,1.21,0,*73
1500098855.62,55113,17.13,73626.3,3.37,1.93,1.21,0,*70
1500098856.82,55114,17.13,73626.5,3.35,1.83,1.13,0,*75
1500098858.05,55115,17.13,73626.3,3.37,1.83,1.13,0,*76
1500098859.27,55116,17.06,73620.5,3.39,1.89,1.17,0,*75
1500098860.5,55117,17.13,73626.3,3.39,1.63,1.09,0,*7F
1500098861.75,55118,17.13,73626.8,3.41,1.47,0.75,0,*43
1500098862.98,55119,17.13,73624.8,3.39,1.51,0.91,0,*40
1500098864.21,55120,17.13,73624.8,3.39,1.63,1.17,0,*74
1500098865.47,55121,17.13,73624.5,3.41,1.85,1.47,0,*77
1500098866.71,55122,17.13,73628.0,3.41,1.89,1.47,0,*78
1500098867.94,55123,17.13,73622.3,3.43,2.01,1.67,0,*7A
1500098869.16,55124,17.13,73624.8,3.43,1.93,1.67,0,*75
1500098870.37,55125,17.13,73624.3,3.43,2.01,1.75,0,*7F
1500098871.6,55126,17.13,73626.3,3.43,2.13,1.85,0,*70
1500098872.85,55127,17.13,73626.5,3.45,2.05,1.93,0,*77
1500098874.1,55128,17.13,73624.0,3.49,1.71,1.43,0,*79
1500098875.35,55129,17.13,73626.5,3.49,1.67,1.43,0,*7F
1500098876.6,55130,17.13,73626.5,3.49,1.67,1.43,0,*77
1500098877.87,55131,17.13,73626.3,3.49,1.33,1.09,0,*79
1500098879.13,55132,17.13,73626.5,3.49,1.55,1.25,0,*74
1500098880.39,55133,17.13,73624.0,3.49,1.71,1.55,0,*74
1500098881.62,55134,17.13,73624.3,3.49,1.93,1.83,0,*74
1500098882.87,55135,17.13,73624.5,3.49,1.55,1.43,0,*73
1500098884.1,55136,17.13,73624.5,3.45,1.41,1.29,0,*75
1500098885.37,55137,17.13,73624.5,3.45,1.33,1.33,0,*7A
1500098886.62,55138,17.13,73628.8,3.49,1.47,1.55,0,*7A
1500098887.87,55139,17.13,73628.0,3.49,1.93,1.97,0,*7C
1500098889.11,55140,17.13,73626.3,3.51,1.97,2.01,0,*73
1500098890.31,55141,17.13,73630.3,3.51,2.09,2.31,0,*75
1500098891.51,55142,17.13,73624.8,3.51,2.25,2.35,0,*7C
1500098892.71,55143,17.13,73628.8,3.51,2.21,2.35,0,*79
1500098893.95,55144,17.13,73622.8,3.51,2.43,2.59,0,*70
1500098895.18,55145,17.13,73622.5,3.55,2.39,2.51,0,*70
1500098896.41,55146,17.13,73626.3,3.53,2.35,2.47,0,*7E
1500098897.65,55147,17.13,73626.3,3.55,2.47,2.59,0,*73
1500098898.91,55148,17.13,73622.8,3.57,2.51,2.59,0,*79
1500098900.13,55149,17.13,73624.3,3.59,2.55,2.55,0,*7E
1500098901.4,55150,17.13,73626.8,3.57,2.39,2.51,0,*76
1500098902.66,55151,17.13,73624.3,3.57,2.47,2.51,0,*7E
1500098903.88,55152,17.13,73626.8,3.59,2.09,2.21,0,*7E
1500098905.12,55153,17.13,73626.5,3.59,2.39,2.43,0,*78
1500098906.37,55154,17.13,73626.0,3.61,2.25,2.25,0,*79
1500098907.61,55155,17.13,73624.0,3.61,2.13,2.21,0,*79
1500098908.86,55156,17.13,73624.5,3.61,2.21,2.25,0,*7F
1500098910.11,55157,17.13,73628.0,3.61,2.13,2.21,0,*7B
1500098911.33,55158,17.13,73624.5,3.63,2.13,2.21,0,*76
1500098912.56,55159,17.13,73624.3,3.63,1.85,1.97,0,*75
1500098913.8,55160,17.13,73620.8,3.61,2.21,2.21,0,*7E
1500098915.01,55161,17.13,73626.8,3.63,2.31,2.43,0,*78
1500098916.23,55162,17.13,73626.8,3.63,2.55,2.59,0,*72
1500098917.47,55163,17.13,73626.3,3.65,2.47,2.47,0,*79
1500098918.65,55164,17.13,73626.3,3.65,2.35,2.35,0,*7E
1500098919.83,55165,17.13,73626.8,3.65,2.27,2.27,0,*7F
1500098921.06,55166,17.13,73622.8,3.65,2.13,2.17,0,*78
1500098922.32,55167,17.13,73624.3,3.67,2.13,2.09,0,*74
1500098923.55,55168,17.13,73626.8,3.65,1.97,1.89,0,*7D
1500098924.78,55169,17.13,73626.5,3.65,2.25,2.25,0,*73
1500098926.02,55170,17.13,73626.0,3.65,2.47,2.39,0,*72
1500098927.25,55171,17.13,73626.3,3.65,2.13,2.13,0,*7A
1500098928.49,55172,17.13,73624.5,3.65,2.25,2.17,0,*78
1500098929.75,55173,17.13,73624.3,3.67,1.85,1.85,0,*7A
1500098931.01,55174,17.13,73624.8,3.67,2.17,2.25,0,*7C
1500098932.25,55175,17.13,73626.8,3.71,2.51,2.61,0,*78
1500098933.5,55176,17.13,73626.5,3.67,2.47,2.47,0,*7F